Погода в Нижнем Туровце

Россия / Орловская область     52°39′52″N   37°01′48″E
темп.,
°C
ветер,
м/с
пор.,
м/с
влажн.,
%
обл.,
%
осадки,
мм/ч
давл.,
гПа
погр.,
м
4 марта, чт
чт400:00−1зсз61188100 0.0 1016643
03:00−3зюз6129384 0.0 1014317
06:00−3зюз7139152 0.0 1012354
09:00−2зюз8168726 0.0 1010492
12:000зюз8148323 0.0 1007756
15:00+1зюз6129557 0.0 1005744
18:00+1зюз61393100 0.0 1003630
21:00+1з51196100 0.1 1003416
5 марта, пт
пт500:00−1зсз4897100 0.1 1003464
03:00−2зсз4897100 0.2 1005307
06:00−3с3596100 0.1 1006193
09:00−4ссз239498 0.1 1008119
12:00−2ссз238686 0.0 1009392
15:00−2ссз238585 0.0 1010541
18:00−4с2288100 0.0 101121
21:00−6с2389100 0.0 101429
6 марта, сб
сб600:00−7ссв2392100 0.0 101543
03:00−8св229099 0.0 101621
06:00−9всв11866 0.0 101521
09:00−8ююв12863 0.0 101628
12:00−5ю128261 0.0 1016239
15:00−4юв118480 0.0 1016269
18:00−6ю119275 0.1 101721
21:00−6сз489566 0.2 1019297
7 марта, вс
вс700:00−10зсз339249 0.1 101962
03:00−9юз498924 0.1 1018198
06:00−7юз7158039 0.0 1015507
09:00−5юз9177470 0.0 1011770
12:00−3зюз121980100 0.0 10071191
15:00−2зюз122081100 0.3 10031419
18:00−2зюз101981100 0.1 10011204
21:00−4ссз51296100 3.4 1002773
8 марта, пн
пн800:00−6зюз4986100 0.5 1003197
03:00−7з5139164 0.6 1003491
06:00−8зсз6148457 0.1 1004591
09:00−8зсз6128937 0.1 1007799
12:00−7зсз6880100 0.1 10091108
15:00−7сз5779100 0.2 10101047
18:00−9сз238690 0.1 101239
21:00−11сз228891 0.1 101421